Location: Helensbirgh
(56.0153°N, 4.7348°W)
Time: 00:32:09
(UTC+00:00)

N. Korean satellite - Pass Details

Date: 28 October 2019
Orbit: 456 x 506 km, 97.2° (Epoch: 16 November)

Event Time Altitude Azimuth Distance (km) Brightness Sun altitude
Rises 06:02:13 0° 18° (NNE) 2,582 10.4 -10.9°
Reaches altitude 10° 06:04:22 10° 25° (NNE) 1,702 9.5 -10.6°
Maximum altitude 06:07:54 45° 99° (E) 693 7.9 -10.1°
Drops below altitude 10° 06:11:27 10° 173° (S) 1,710 9.5 -9.6°
Sets 06:13:36 0° 180° (S) 2,594 10.4 -9.3°
